Tracking 20369 objects as of 17-Feb-2020
HD Live streaming from Space Station
objects crossing your sky now

COSMOS 2142

Track COSMOS 2142 now!
10-day predictions
COSMOS 2142 is classified as:


NORAD ID: 21230
Int'l Code: 1991-029A
Perigee: 966.9 km
Apogee: 1,024.0 km
Inclination: 83.0 °
Period: 104.9 minutes
Semi major axis: 7366 km
RCS: 2.0441 m2 (large)
Launch date: April 16, 1991
Source: Commonwealth of Independent States (former USSR) (CIS)
Launch site: PLESETSK MISSILE AND SPACE COMPLEX (PKMTR)
aabbcc
Your satellite tracking list
Your tracking list is empty




NASA's NSSDC Master Catalog

Two Line Element Set (TLE):
1 21230U 91029A   20047.76418810  .00000029  00000-0  14410-4 0  9992
2 21230  82.9582 143.5723 0038717 159.8952 315.7000 13.73139598445226
Source of the keplerian elements: AFSPC